West Ford 2 Dispenser

unknown
NORAD ID: 18603 Int'l Des: 1962 KAP Owner: AFSSD Country: US
MEOPOLAR

West Ford 2 Dispenserについて

説明を読み込み中...

リアルタイム位置

3D地球を読み込み中...

次回通過

高度履歴

Altitude vs Time

uPlot chart will show altitude changes over time

軌道要素

1 18603U 62010G 26059.73533973 -.00000012 00000-0 -31825-2 0 9995
2 18603 86.6982 341.8204 0284967 195.0113 189.1752 9.41008241368343
Epoch: Feb 28, 2026 • Age: 113 hours

現在のステータス

高度 3014.4 km
速度 6.55 km/s
衛星直下点 60.74°N, 101.75°E
打ち上げ日 Apr 9, 1962
運用期間 63.9 years
タイプ other

技術仕様

分類 Payload
質量 1.00 kg
乾燥質量 1.00 kg
総質量 1.00 kg
長さ 0.30 m
直径 0.00 m
スパン 0.30 m
形状 Cyl
製造者 MITLL
バスタイプ Westford Drag
フェーズステータス In Orbit
所有者/国 AFSSD/US

大規模コンステレーション

Loading constellations...